Regional Weather Roundup
Issued by NWS

Home | Current Version | Previous Version | Text Only | Print | Product List | Glossary On
Versions: 1 2 3 4 5 6 7 8 9 10 11 12 13 14 15 16 17 18 19 20 21 22 23 24 25 26 27 28 29 30 31 32 33 34 35 36 37 38 39 40 41 42 43 44 45 46 47 48 49 50
000
ASUS43 KTOP 061459
RWRKS

WEATHER ROUNDUP FOR KANSAS
NATIONAL WEATHER SERVICE GOODLAND KS
1000 AM CDT WED MAY 06 2015

NOTE:  "FAIR" INDICATES FEW OR NO CLOUDS BELOW 12,000 FEET WITH NO
SIGNIFICANT WEATHER AND/OR OBSTRUCTIONS TO VISIBILITY.

KSZ001>006-013>018-027>032-041>047-061600-
NORTHWEST KANSAS

CITY           SKY/WX    TMP DP  RH WIND       PRES   REMARKS
GOODLAND       CLOUDY    53  51  93 S9        29.69S
HAYS           CLOUDY    61  54  77 S22G29    29.74S
HILL CITY      CLOUDY    61  55  82 S14G21    29.72S
RUSSELL        CLOUDY    62  59  90 S21G33    29.74S
$$

KSZ061>065-074>080-084>089-061600-
SOUTHWEST KANSAS

CITY           SKY/WX    TMP DP  RH WIND       PRES   REMARKS
DODGE CITY     CLOUDY    61  56  83 S21G26    29.73F
ELKHART          N/A     61  49  65 SW8         N/A
GARDEN CITY    PTSUNNY   60  55  83 S16G26    29.70S
GREAT BEND     CLOUDY    61  55  82 S22G30    29.75F
LIBERAL        MOSUNNY   64  55  72 S21G30    29.74S
$$

KSZ066>073-081>083-090>101-061600-
SOUTHEAST KANSAS

CITY           SKY/WX    TMP DP  RH WIND       PRES   REMARKS
CHANUTE        CLOUDY    64  59  83 S18G26    29.98R
COFFEYVILLE    CLOUDY    65  60  84 S15G21    29.98F
HUTCHINSON     CLOUDY    62  59  90 S26G32    29.82F
MEDICINE LODGE   N/A     66  64  93 S14G26    29.80F
NEWTON         CLOUDY    61  54  77 S22G30    29.88S
PARSONS        CLOUDY    65  59  81 SE12G18   30.00R
WICHITA INTL   CLOUDY    62  59  90 SE25G33   29.86S
WICHITA JABRA  CLOUDY    62  59  90 S23G31    29.87S
WINFIELD       CLOUDY    62  59  90 SE17G28   29.91F
$$

KSZ007>012-019>026-033>040-048>060-102>105-061600-
NORTHEAST KANSAS

CITY           SKY/WX    TMP DP  RH WIND       PRES   REMARKS
CONCORDIA      CLOUDY    62  57  83 S18G26    29.80S
EMPORIA        LGT RAIN  59  57  93 S9        29.92R
LAWRENCE       CLOUDY    68  60  75 S16G22    29.94R
MANHATTAN      CLOUDY    65  59  81 S17G23    29.85S
OLATHE IND     CLOUDY    66  60  81 S20G25    29.97R
OLATHE EXE     CLOUDY    65  60  84 S18G26    29.97R
SALINA         CLOUDY    64  60  87 S23G29    29.81F
TOPEKA BILLARD CLOUDY    67  59  75 S20G26    29.92R
TOPEKA FORBES  CLOUDY    67  59  75 S23G31    29.91R
$$



USA.gov is the U.S. government's official web portal to all federal, state and local government web resources and services.